User: anonymous   Login
Location: Vancouver
(49.2500°N, 123.1330°W)
Time: 11:14:48
(UTC-07:00)
Language:

Vanguard 2 Rocket - Orbit

View from above orbital plane
View from above orbital plane
View from above satellite
View from above satellite

Ground track
Ground track

The orbit data is extracted from the following two-line orbital elements,

1 00012U 59001B   14297.24775760  .00000546  00000-0  32902-3 0  9410
2 00012 032.9015 006.6636 1670552 033.0995 336.3797 11.43417308286216
Epoch (UTC): 24 October 2014 05:56:46
Eccentricity: 0.1670552
inclination: 32.9015°
perigee height: 554 km
apogee height: 3335 km
right ascension of ascending node: 6.6636°
argument of perigee: 33.0995°
revolutions per day: 11.43417308
mean anomaly at epoch: 336.3797°
orbit number at epoch: 28621

The dashed part of the orbit path shows where the satellite is in the earth's shadow,  

DLR